FREGAT DEB, 45974

Orbit data source: Space-Track

FREGAT DEB, 45974 is space debris in LEO originally from a launch on Mon, 18 Jul 2011 UTC launched from the Tyuratam Missile And Space Complex (TTMTR). Debris objects in space refer to the collection of defunct objects orbiting the Earth. Examples of debris include non-operational satellites, rocket bodies, and fragments generated from explosions, collisions, or faulty payload assembly.

Loading next visibility...
Identifier
45974, 2011-037GF
Orbit
LEO
Country
Flag of CISCIS
Related business
Manufacturer
Lavochkin
Mission
Spacecraft
Bus & Motor
Unknown
Mass
Unknown
Launch date (UTC)
2011-07-18 (15 years ago)
Launch vehicle
Unknown
Launch site
Tyuratam Missile And Space Complex (TTMTR)
Object type
Payload
Rocket body
Debris
Shape & HBR
Unknown shape, 0.1 m
Radar Cross Section
Small (<0.1 m²)

Expand to show TLE details & history
Last TLE update: 20 hours ago

TLE from 20 hours ago
0 FREGAT DEB
1 45974U 11037GF  26126.56432519  .00000985  00000-0  12388-2 0  9999
2 45974  51.4745 198.1277 2161813 184.1522 173.8225 10.29060455216804
Epoch: 2026-05-06T13:32Z
TLE epoch observation values (Epoch: 2026-05-06T13:32:37.696Z)
Latitude
-0.00003°
Longitude
130.54761°
Altitude
4,473.355 km
Speed
5.37 km/s
True Right ascension
13h 12m 30s
True Declination
0° 00' 00"
Sunlit
Object was in full shadow at epoch
Visualization orbit readout
Latitude
Unknown
Longitude
Unknown
Altitude
Unknown
Speed
Unknown
Apparent Right ascension
Unknown
Apparent Declination
Unknown
Sunlit
N/A
Visualization observer readout
Local Sidereal Time
17:54:06
Azimuth
Unknown
Elevation
Unknown
Doppler factor
Unknown
Orbital elements
Apogee altitude
4,480.975 km
Perigee altitude
620.47 km
Semi-major axis
8,928.859 km
Eccentricity
0.21618
Inclination
51.4745°
RAAN
198.1277°
Arg. of periapsis
184.1522°
True anomaly
175.92033°
Mean anomaly
173.8225°
Eccentric anomaly
174.91939°
Mean motion
2.57246 °/min
Orbital period
139.94 mins
BSTAR
0.0012388
Loading maneuver chart data...
Computing Atmospheric mass density...
Loading historical data...
Loading historical data...
Loading historical data...
Loading historical data...
Loading historical data...
Loading historical data...
Loading historical data...

Documentation

Showing up to 5 results
|